Weather in Starocherkasskaya

Russia / Rostov Oblast     47°14′19″N   40°02′15″E
temp.,
°C
wind,
m/s
gust,
m/s
humid.,
%
clouds,
%
prec.,
mm/h
press.,
hPa
HPBL,
m
23 october, sat
sat2300:00+12sw498655 0.0 1018224
03:00+11sw499399 0.0 1017205
06:00+10ssw379668 0.0 1017163
09:00+13sw598079 0.0 1018362
12:00+18wsw5752100 0.0 1018975
15:00+19wsw6852100 0.0 10161243
18:00+14wsw41069100 0.0 1017321
21:00+14w3772100 0.0 1018259
24 october, sun
sun2400:00+12nnw3779100 0.2 1019345
03:00+12w2376100 0.3 1019130
06:00+10nnw3478100 0.0 102066
09:00+11n3453100 0.0 1021300
12:00+14n3338100 0.0 10201055
15:00+13n4337100 0.0 10191545
18:00+9n3458100 0.6 1021900
21:00+8n3571100 1.3 1022759
25 october, mon
mon2500:00+8w2366100 0.1 1022279
03:00+7nw4863100 0.1 1023275
06:00+4nnw48745 0.0 1025261
09:00+6n58675 0.0 1028589
12:00+9n554943 0.0 10281358
15:00+9n55361 0.0 10291566
18:00+6n36441 0.0 1031182
21:00+4nne34445 0.0 103269
26 october, tue
tue2600:00+3nne33465 0.0 103355
03:00+2ne22501 0.0 103330
06:00+1ene22530 0.0 103429
09:00+4ene23420 0.0 1035265
12:00+8e33300 0.0 1033877
15:00+9ene33240 0.0 10321006
18:00+6e23324 0.0 103239
21:00+4e22370 0.0 103233
27 october, wed
wed2700:00+3e33460 0.0 103244
03:00+2e34540 0.0 103173
06:00+1e35580 0.0 103082
09:00+5e48470 0.0 1030286
12:00+11ese56280 0.0 1027806
15:00+13ese55240 0.0 1025963
18:00+8ese36360 0.0 1024104
21:00+5e224536 0.0 102433